Vorticity
14 14 16 15 13 16 15 12 14 14 12 11 11 12 12 11 13 13 11 11 11 11 10 10 11 9 10 12 10 11 12 10 7 6 8 10 10 9 7 6 6 5 6 7 7 8 8 8 8 8 7 7 7 7 8 8 7 6 6 5 5 5 5 4 4 4 6 8 9 9 7 4 2 1 1 2 4 8 10 10 8 6 6 6 7 7
12 13 13 12 14 14 13 12 12 12 12 11 10 10 11 11 11 14 13 10 10 12 11 10 10 7 7 10 11 11 8 3 4 8 10 9 7 7 6 7 8 8 8 6 5 6 6 6 7 7 6 6 5 5 4 3 3 3 3 4 4 6 6 6 5 4 4 4 5 6 7 6 3 1 -0 0 -0 1 5 9 11 9 8 7 7 8
8 10 8 12 15 12 11 14 13 12 13 10 9 10 12 11 9 12 13 10 10 12 12 12 11 9 11 14 13 11 9 7 9 9 7 6 5 5 6 7 8 7 6 4 3 4 5 5 6 6 5 5 4 3 2 2 3 5 6 7 9 10 12 13 12 11 10 10 9 9 10 8 6 4 2 1 -0 -1 -1 3 7 9 9 9 8 8
4 6 7 12 13 11 12 13 13 15 15 10 8 10 11 11 10 9 9 10 11 12 14 13 12 14 15 15 14 13 13 12 9 7 5 4 4 4 5 5 4 4 5 5 4 4 4 5 5 4 3 3 2 3 4 5 6 9 11 14 18 20 21 22 22 21 20 21 22 23 24 23 20 18 15 12 9 6 3 3 5 6 7 8 8 10
7 8 9 12 11 11 11 9 11 15 15 10 8 9 10 10 11 8 5 7 11 13 12 10 11 14 10 8 13 13 10 8 5 4 5 5 5 5 5 4 4 5 5 5 4 5 5 4 2 3 4 6 7 8 9 11 14 17 20 21 22 24 24 24 24 25 25 25 27 29 33 34 34 34 32 31 29 25 20 16 12 10 9 8 5 6
10 10 10 11 10 11 11 9 11 12 12 12 10 10 11 10 10 10 7 5 9 12 9 6 9 11 6 5 11 11 6 6 5 5 7 7 5 5 5 5 5 4 4 5 6 6 5 4 6 10 12 12 11 11 12 15 19 22 23 23 23 24 25 27 27 27 27 27 30 34 36 38 40 41 41 42 43 43 40 36 31 24 18 14 9 4
10 9 8 9 9 12 12 11 11 10 13 15 11 11 12 10 9 10 9 6 7 10 8 7 9 10 7 7 8 9 6 4 6 7 5 5 4 4 5 5 5 4 4 5 6 7 9 12 16 16 12 11 11 13 16 19 21 22 23 24 26 27 27 27 27 28 31 35 36 37 38 41 42 42 41 41 42 44 46 46 45 40 31 24 21 14
7 5 6 9 9 9 9 10 11 9 13 14 10 11 11 10 11 10 9 9 8 9 9 9 10 9 7 8 8 7 4 2 5 7 4 4 5 3 3 4 6 6 5 8 10 11 13 13 14 10 7 10 13 16 19 21 22 23 25 26 26 26 26 28 31 35 41 41 37 35 37 38 36 37 38 37 37 38 40 42 43 45 41 33 30 30
3 4 6 7 7 5 6 11 11 9 12 12 10 12 11 8 11 11 10 12 11 9 10 9 9 9 6 7 7 5 5 7 6 4 4 5 4 3 3 5 7 7 7 9 9 8 9 10 10 9 10 13 16 19 22 24 26 27 27 28 30 34 39 41 41 42 42 35 30 34 37 32 26 27 30 30 31 32 33 35 37 40 42 38 33 35
3 6 8 6 6 8 9 13 12 9 10 10 9 11 13 12 13 14 12 11 12 11 9 7 5 8 10 7 4 5 8 8 4 3 5 6 5 3 4 6 7 7 5 5 6 8 12 15 15 14 15 17 21 26 29 31 34 35 35 37 42 47 46 41 37 36 33 26 23 27 27 22 19 20 20 21 22 23 25 28 31 35 40 41 35 33
4 4 10 7 7 10 10 13 15 8 7 10 7 4 10 15 14 15 14 11 14 14 10 8 5 8 13 9 4 6 8 6 5 5 5 5 5 5 6 8 9 8 10 14 15 15 17 19 20 20 22 27 33 33 32 35 38 38 38 41 44 41 33 29 29 27 23 17 15 16 14 14 16 16 16 16 16 17 18 21 23 26 32 39 39 34
7 2 9 9 7 11 9 12 17 8 4 10 8 1 4 10 11 14 17 13 15 17 13 9 9 9 9 6 6 8 6 5 6 5 4 4 5 7 7 6 8 11 16 18 14 13 17 21 25 29 32 35 35 32 34 39 37 35 37 37 34 29 24 23 21 16 12 11 12 14 13 13 14 16 17 16 15 13 13 15 16 18 21 27 34 36
11 3 9 10 8 11 7 9 16 8 5 11 10 4 3 4 5 7 11 9 10 17 17 11 11 12 6 5 7 7 6 7 6 4 4 5 6 8 8 8 12 13 12 11 12 17 22 26 32 34 35 34 32 34 39 38 31 29 32 32 28 24 21 18 13 11 12 14 15 15 13 12 13 14 17 18 15 11 11 11 12 13 16 18 23 29
15 8 9 10 9 11 8 8 11 8 7 12 10 7 6 3 0 1 5 5 2 8 16 15 12 9 5 7 8 7 9 8 4 4 5 6 7 9 10 12 11 7 7 13 19 24 28 33 35 32 30 30 31 35 35 27 23 23 26 28 25 21 16 11 9 11 12 12 13 12 11 12 13 11 13 17 18 14 11 10 9 9 11 14 16 21
20 14 6 9 11 10 10 8 9 9 7 11 12 10 9 7 4 4 7 8 2 0 10 15 10 6 7 10 10 8 8 5 2 5 6 5 7 8 8 8 6 7 15 21 24 27 32 35 33 30 29 28 28 31 27 20 18 19 22 24 20 13 9 8 9 10 10 11 10 8 9 11 11 10 11 15 19 19 15 11 10 8 8 10 10 12
19 17 4 8 12 9 11 8 8 12 7 8 13 12 11 9 6 6 8 13 8 0 8 12 5 7 11 9 8 8 5 5 5 5 6 7 8 9 8 8 10 16 22 23 22 29 35 34 32 30 27 24 25 26 22 16 14 16 18 18 13 7 5 8 11 10 9 10 8 6 6 5 6 8 10 14 17 20 20 16 12 10 9 10 10 8
16 20 6 7 14 11 11 11 9 11 10 10 12 11 13 12 8 4 6 13 12 3 8 11 3 5 12 9 7 6 4 5 5 4 7 10 9 10 11 11 16 22 23 20 23 31 35 32 30 27 24 22 22 20 16 13 13 13 14 13 9 6 5 7 11 10 9 9 7 5 3 1 2 5 7 12 16 19 22 20 13 9 9 9 10 9
10 19 10 6 16 13 9 13 12 9 12 14 12 10 10 11 11 8 4 8 12 6 3 10 11 6 9 12 6 4 5 5 5 8 10 10 10 12 12 13 18 22 20 18 25 34 33 27 23 21 20 19 16 14 13 12 11 10 9 8 7 7 8 9 10 11 10 9 7 6 4 2 2 5 8 12 15 18 22 22 17 10 7 8 7 8
5 15 15 9 15 15 10 12 11 8 14 17 14 12 10 10 11 11 10 9 10 6 -0 6 14 9 9 12 5 2 6 5 5 9 10 9 12 13 12 14 19 21 19 19 27 34 30 22 17 16 15 15 15 14 12 10 9 7 5 5 6 7 11 12 12 13 14 12 10 7 6 7 7 10 15 18 15 16 20 24 22 14 9 9 8 8
4 9 16 13 12 15 13 12 10 9 13 15 15 14 12 13 12 11 16 15 6 5 7 5 6 11 13 8 1 3 7 6 7 8 9 11 12 12 13 16 21 23 20 21 27 30 25 17 13 11 10 11 12 11 10 9 8 6 4 4 6 8 11 14 14 15 15 14 12 10 8 9 9 12 17 19 15 15 17 22 24 20 12 11 11 10
6 5 11 12 11 15 16 15 14 12 11 11 13 14 12 12 12 9 14 18 9 9 15 4 -4 10 15 3 1 8 5 5 8 8 9 12 12 12 13 18 24 24 20 22 26 24 21 15 10 9 9 8 8 6 5 5 4 4 4 4 7 8 9 11 12 12 12 12 12 12 10 7 7 12 16 15 14 15 17 19 23 23 16 13 13 11
5 4 7 10 12 16 17 15 15 13 12 15 13 12 13 14 14 9 6 11 12 14 16 2 -7 8 11 2 5 9 3 6 11 9 11 14 13 13 14 20 26 22 19 25 25 20 18 14 9 8 8 7 6 4 4 4 3 3 5 6 7 7 7 8 9 9 9 9 10 9 9 7 6 9 13 14 13 14 15 17 20 22 18 14 13 10
6 5 6 7 8 13 14 10 11 13 17 21 17 12 15 15 15 15 7 2 5 12 14 4 1 10 9 4 6 4 2 8 11 10 13 13 13 15 18 22 25 21 21 27 26 19 17 13 8 6 7 6 5 4 5 6 5 4 5 7 6 5 6 7 8 8 8 10 12 9 8 8 7 7 8 11 14 13 13 15 17 21 20 15 12 10
7 7 9 9 6 8 9 4 7 17 22 22 17 13 15 15 15 15 12 5 4 9 11 5 4 8 8 6 4 2 5 10 11 12 13 14 15 17 19 21 23 22 24 30 28 17 13 11 8 8 8 8 9 7 6 7 7 5 4 5 6 6 6 6 7 9 9 9 11 10 8 8 8 8 6 7 13 15 13 14 15 18 19 16 12 10
8 8 11 15 11 9 13 10 8 16 23 24 19 11 11 17 16 10 9 12 9 8 11 8 2 5 9 7 3 5 7 8 12 14 14 16 17 17 19 21 24 23 23 31 30 14 8 11 10 9 9 8 9 9 9 10 10 9 7 5 6 7 7 8 8 9 10 10 9 9 8 7 7 8 7 6 11 15 14 14 14 15 17 16 13 11
8 8 11 18 14 7 14 18 9 4 11 21 21 14 12 17 16 9 9 15 11 5 11 11 0 0 9 7 4 8 9 9 14 15 15 17 15 17 22 21 24 25 23 31 29 12 7 10 9 10 10 8 10 10 10 12 13 13 13 10 7 7 8 11 11 11 11 10 9 7 6 7 10 9 7 7 9 14 16 15 14 14 15 15 13 12
5 6 10 19 16 5 10 18 10 1 4 12 15 16 17 15 14 13 11 14 12 5 10 15 6 2 8 6 5 11 11 11 15 16 17 18 13 17 24 21 23 26 25 31 31 14 6 9 9 10 11 9 10 11 10 11 12 12 13 14 12 9 9 10 12 13 14 13 10 9 9 11 13 11 10 11 10 11 15 16 14 13 14 14 14 12
6 5 6 16 17 6 7 13 9 7 11 11 9 14 17 13 14 17 11 10 12 6 4 11 12 8 8 7 7 12 12 11 15 18 17 16 14 18 22 20 23 27 25 31 36 22 7 9 11 9 9 10 9 11 10 8 9 10 12 15 17 16 14 12 12 11 13 15 15 13 11 10 11 10 11 14 14 10 12 16 15 13 14 15 14 13
7 6 4 12 15 5 5 11 8 8 15 16 12 14 17 14 14 15 12 10 12 7 -0 3 8 9 8 8 10 12 12 12 15 18 16 15 16 18 20 21 23 27 25 26 35 32 13 9 13 10 9 13 12 12 10 5 8 15 18 19 20 23 22 20 21 19 13 10 10 10 8 5 6 9 10 13 15 13 12 15 16 14 14 16 16 14
6 7 5 9 11 5 5 12 10 7 11 15 15 17 19 16 13 15 17 15 12 7 3 2 5 8 10 10 12 12 13 14 16 17 17 16 17 18 19 21 21 25 27 22 29 34 19 7 11 11 9 13 14 11 8 6 10 16 18 17 16 17 19 20 26 32 25 12 3 2 4 3 4 7 9 10 13 14 14 15 17 16 13 13 14 13
6 8 6 6 10 7 6 12 11 7 10 13 14 19 19 15 14 15 16 17 11 4 4 6 5 8 11 12 13 14 14 15 16 17 17 16 18 18 19 21 21 23 28 24 25 33 26 8 6 10 9 12 13 10 7 7 12 16 16 15 14 15 19 22 25 33 38 29 12 2 2 4 5 7 8 9 11 13 15 16 17 15 12 11 11 11
5 7 7 7 11 10 8 12 10 6 11 15 17 18 15 13 16 14 10 13 11 0 -1 6 8 9 12 12 12 14 14 14 16 19 18 17 18 19 18 20 20 19 25 26 23 31 30 13 5 10 9 10 12 9 7 9 13 16 15 13 16 18 20 24 24 26 35 38 29 17 8 4 5 8 9 9 11 13 15 17 17 14 11 10 9 9
7 9 11 10 10 11 10 11 10 7 10 16 20 17 11 10 14 14 13 13 11 4 1 5 9 11 13 12 12 13 14 15 18 20 19 16 16 17 17 17 17 15 21 25 23 29 31 16 6 10 10 10 11 7 7 11 15 16 15 14 18 20 21 26 28 26 28 33 35 31 23 13 9 10 10 10 13 15 15 17 16 13 11 10 8 9
8 9 12 10 9 12 10 8 13 15 10 10 18 17 12 9 5 7 18 17 7 6 8 8 10 13 13 12 11 13 15 17 19 20 18 15 16 17 16 16 17 15 19 24 23 28 32 18 6 8 9 9 11 8 8 13 15 14 16 17 18 21 27 35 39 36 30 28 30 30 28 26 20 14 12 14 16 15 15 17 17 14 12 10 8 10
8 10 13 11 7 9 10 10 15 18 9 8 18 17 13 13 2 -4 15 23 7 3 10 9 10 14 13 11 12 13 15 18 20 20 17 15 16 18 17 17 18 16 19 24 23 26 31 21 8 8 9 8 9 9 9 14 16 14 18 20 18 22 32 40 42 39 32 28 27 24 24 28 25 17 15 17 18 17 16 17 16 13 10 9 11 15
10 10 12 12 7 7 13 14 13 12 8 11 20 16 9 14 7 -9 3 19 10 4 10 10 11 15 12 9 13 15 15 18 21 19 16 15 16 17 19 20 19 17 17 21 23 24 27 19 9 8 9 8 10 11 11 15 16 16 20 20 15 22 34 38 36 33 30 28 26 22 23 26 22 17 18 19 19 19 18 16 13 11 12 15 18 19
12 11 11 13 10 9 12 11 8 12 14 13 17 16 7 10 11 -1 0 13 12 8 11 11 11 14 12 10 14 16 15 18 20 17 15 16 16 18 19 20 20 19 18 20 23 24 23 17 9 7 8 10 11 11 13 16 15 16 21 19 15 20 30 34 35 32 30 30 28 25 23 21 18 18 19 20 19 17 15 13 13 16 19 21 18 14
12 12 12 13 10 10 13 13 11 14 14 10 12 16 10 8 10 6 5 12 14 10 12 12 12 13 12 12 14 16 17 15 15 15 15 15 18 20 20 20 20 21 23 24 24 24 22 16 9 7 9 11 12 12 15 17 15 17 21 20 17 18 21 26 33 34 32 31 26 21 19 18 19 20 19 17 15 14 15 19 22 23 19 13 9 8
12 11 11 13 11 10 12 16 18 14 8 8 10 10 10 11 10 3 3 11 15 13 11 12 13 13 12 14 16 17 17 13 10 13 15 16 20 22 22 23 23 23 27 26 23 23 20 12 7 6 6 9 13 16 18 17 15 18 22 22 21 20 18 19 22 24 24 22 19 18 19 20 19 17 15 15 15 18 22 21 17 11 7 8 15 23
13 11 10 13 13 10 8 14 23 20 9 9 11 5 4 13 15 6 3 7 9 11 12 12 13 15 13 15 18 16 15 12 9 11 16 18 22 23 24 25 25 27 30 27 25 26 19 9 8 8 7 12 16 17 18 17 15 18 22 21 19 19 18 18 19 19 19 19 19 19 18 16 15 15 16 18 19 17 15 10 10 15 22 29 31 29
12 11 10 12 14 12 8 10 20 22 12 9 15 12 3 5 12 11 11 12 7 7 13 14 13 15 15 17 18 15 13 13 12 14 19 21 22 25 27 28 28 29 30 27 26 24 15 7 6 6 10 18 18 16 19 18 15 17 18 15 14 14 13 14 16 17 17 17 17 16 16 16 18 18 16 16 14 12 13 19 28 34 33 28 20 13
11 12 11 12 14 13 9 8 14 19 14 8 13 18 10 2 4 7 9 16 14 9 11 14 15 16 18 19 18 13 11 13 15 18 23 25 25 26 28 30 31 31 31 30 27 19 11 7 5 6 16 22 17 16 20 18 13 14 13 9 8 9 9 11 14 14 16 17 17 18 19 18 16 14 14 15 17 21 28 32 29 21 14 11 10 10
9 11 11 11 15 15 11 12 12 11 14 11 8 14 16 9 6 4 2 10 18 15 11 13 17 20 20 17 15 12 11 14 18 22 26 27 28 29 30 32 33 34 34 30 22 13 7 5 5 10 21 23 15 15 20 18 13 11 10 7 6 6 10 16 20 19 19 20 18 16 13 12 13 16 19 22 26 29 27 19 11 7 9 10 11 12
9 12 11 11 17 17 9 12 14 9 12 17 10 8 14 14 10 7 3 6 13 16 15 15 17 23 22 16 12 12 12 15 21 25 27 28 28 29 31 32 34 37 35 25 15 10 5 3 11 21 24 19 13 15 21 20 12 8 9 8 5 9 17 22 20 18 15 12 11 11 13 17 22 23 22 22 23 19 11 5 4 7 7 6 6 8
8 11 10 8 15 16 5 6 15 14 13 19 16 9 11 13 11 9 8 8 10 14 18 20 18 20 20 14 10 11 15 19 24 28 29 29 29 29 30 33 36 36 29 18 10 5 2 8 22 28 21 13 11 16 22 21 12 9 10 7 7 16 23 19 13 10 9 9 13 18 23 25 22 18 18 18 14 7 2 2 3 4 5 7 9 10
8 10 12 8 7 11 8 8 15 16 13 15 16 13 11 13 13 10 10 12 12 12 18 22 21 18 16 13 10 12 19 24 27 31 31 30 31 32 34 40 40 32 21 12 5 4 9 20 28 24 15 11 12 18 23 19 12 10 8 6 13 22 19 11 7 6 8 16 23 26 25 19 15 15 15 13 6 1 0 2 4 5 7 9 10 9
7 7 12 11 7 8 11 12 15 18 15 10 9 9 9 12 14 12 11 13 14 14 19 23 21 17 14 12 10 14 23 29 30 32 33 32 33 36 39 42 37 24 12 5 3 9 21 26 22 16 12 13 16 21 22 18 13 10 8 10 18 20 13 6 5 8 16 25 29 25 17 11 10 11 9 6 4 1 1 4 6 6 5 7 7 6
7 6 9 12 11 9 10 10 11 17 18 12 7 6 6 8 12 13 13 14 14 16 21 25 23 17 11 10 12 17 27 33 32 32 34 36 37 39 41 39 28 13 4 3 8 18 24 20 15 12 12 17 23 23 19 16 12 9 10 15 17 14 7 3 5 15 25 30 27 19 7 3 6 6 4 5 4 2 3 6 7 6 5 6 7 7
5 8 9 11 11 11 12 10 8 12 17 14 9 8 7 8 10 12 13 14 14 15 19 24 25 21 12 9 13 22 30 34 34 35 38 40 41 42 39 30 16 3 2 9 18 22 20 14 12 11 15 24 28 21 15 15 13 11 15 17 13 8 3 3 14 28 29 24 20 11 -1 -1 7 8 6 8 7 4 6 7 7 7 5 5 10 13
3 7 9 11 13 13 13 11 7 10 15 12 7 7 8 8 10 12 12 15 17 18 18 18 21 21 17 13 16 26 33 36 36 39 41 41 42 42 33 18 5 1 7 17 23 20 15 11 11 14 22 29 25 18 17 18 15 16 19 15 7 2 3 12 27 33 23 15 17 11 -2 -3 6 8 10 13 10 7 8 6 5 7 7 5 10 14
3 7 9 11 12 12 12 11 8 10 13 10 5 6 8 8 10 13 13 14 18 21 21 19 17 16 15 16 21 29 36 37 37 40 42 41 39 34 21 6 0 4 14 22 22 15 12 11 13 19 27 28 22 20 22 22 20 20 19 11 3 4 15 29 35 26 12 11 16 13 3 1 4 7 13 15 9 5 6 4 4 8 9 8 11 12
Height
5752 5748 5745 5742 5738 5735 5731 5727 5723 5719 5715 5712 5709 5705 5701 5698 5695 5690 5685 5680 5675 5673 5672 5666 5662 5657 5652 5650 5648 5643 5639 5634 5629 5625 5621 5616 5612 5607 5603 5598 5594 5589 5584 5580 5574 5569 5564 5560 5556 5551 5546 5542 5538 5534 5531 5528 5525 5521 5518 5515 5512 5508 5504 5502 5500 5497 5495 5493 5492 5491 5491 5492 5495 5499 5500 5501 5503 5506 5508 5509 5508 5509 5511 5513 5515 5515
5750 5746 5743 5739 5736 5732 5728 5724 5720 5716 5712 5708 5704 5701 5697 5693 5691 5687 5680 5676 5670 5666 5666 5661 5657 5652 5646 5644 5642 5637 5633 5627 5621 5617 5612 5608 5603 5598 5594 5589 5585 5579 5574 5569 5563 5558 5553 5548 5543 5537 5533 5529 5525 5521 5517 5513 5509 5505 5501 5498 5494 5490 5486 5483 5481 5478 5477 5476 5474 5472 5471 5472 5476 5480 5481 5483 5485 5488 5492 5495 5494 5494 5495 5497 5500 5503
5747 5744 5741 5737 5733 5729 5725 5721 5717 5713 5708 5704 5700 5696 5693 5688 5686 5685 5679 5671 5665 5659 5658 5656 5652 5647 5640 5637 5636 5631 5627 5620 5614 5609 5603 5599 5594 5589 5584 5579 5574 5569 5563 5559 5553 5548 5543 5537 5532 5526 5521 5516 5511 5507 5502 5498 5494 5489 5485 5481 5476 5472 5468 5464 5461 5459 5458 5456 5454 5451 5451 5453 5456 5459 5461 5463 5467 5470 5474 5478 5479 5479 5481 5482 5483 5486
5745 5741 5738 5734 5730 5726 5722 5719 5715 5711 5705 5700 5696 5692 5689 5684 5678 5676 5674 5668 5661 5652 5647 5649 5649 5643 5634 5630 5628 5623 5618 5612 5607 5601 5595 5591 5586 5580 5575 5570 5565 5559 5554 5549 5543 5537 5532 5525 5520 5514 5508 5503 5496 5491 5486 5483 5479 5473 5468 5463 5457 5453 5448 5444 5441 5439 5437 5434 5432 5429 5429 5432 5436 5438 5439 5442 5446 5451 5453 5457 5461 5462 5463 5466 5468 5470
5742 5738 5734 5730 5726 5722 5718 5715 5711 5707 5703 5697 5693 5688 5684 5681 5674 5668 5665 5662 5659 5651 5640 5638 5642 5639 5628 5620 5618 5614 5608 5603 5598 5593 5588 5583 5579 5572 5567 5562 5556 5550 5544 5538 5532 5526 5519 5512 5506 5500 5493 5485 5479 5473 5468 5464 5460 5454 5449 5443 5438 5433 5429 5425 5422 5420 5418 5414 5411 5409 5409 5412 5415 5417 5419 5421 5424 5428 5430 5434 5441 5444 5445 5447 5451 5453
5739 5735 5731 5726 5722 5718 5714 5710 5706 5702 5699 5694 5689 5685 5679 5675 5671 5665 5660 5654 5652 5648 5637 5629 5630 5632 5624 5612 5609 5606 5601 5596 5590 5585 5580 5574 5570 5564 5558 5552 5546 5540 5534 5527 5521 5514 5507 5498 5491 5484 5477 5469 5463 5457 5451 5446 5441 5435 5429 5424 5420 5415 5411 5407 5405 5404 5401 5397 5394 5391 5391 5395 5397 5398 5401 5403 5404 5406 5408 5412 5418 5424 5428 5428 5431 5436
5736 5732 5728 5724 5719 5715 5710 5706 5702 5698 5694 5690 5685 5680 5675 5670 5665 5661 5655 5648 5643 5639 5632 5624 5620 5622 5619 5609 5603 5599 5595 5589 5582 5578 5572 5565 5560 5554 5548 5543 5538 5531 5525 5518 5511 5502 5494 5485 5478 5470 5463 5456 5449 5443 5437 5431 5425 5418 5412 5407 5403 5398 5394 5391 5390 5388 5386 5383 5380 5378 5379 5381 5381 5382 5385 5386 5387 5389 5391 5393 5397 5403 5409 5412 5412 5416
5733 5729 5724 5721 5716 5712 5708 5703 5699 5694 5690 5685 5680 5675 5671 5666 5661 5655 5650 5644 5638 5633 5626 5620 5615 5614 5613 5605 5598 5593 5587 5579 5573 5568 5563 5556 5551 5546 5541 5536 5529 5522 5515 5507 5498 5490 5482 5474 5466 5458 5450 5443 5435 5427 5421 5415 5409 5402 5396 5392 5388 5383 5380 5377 5375 5374 5373 5370 5368 5368 5370 5369 5368 5369 5372 5374 5374 5376 5377 5378 5380 5384 5390 5395 5396 5398
5731 5727 5722 5718 5714 5710 5705 5700 5695 5690 5685 5680 5675 5671 5666 5661 5656 5650 5646 5641 5634 5629 5622 5616 5610 5606 5606 5600 5591 5585 5579 5571 5565 5559 5553 5548 5543 5538 5532 5526 5520 5512 5504 5495 5487 5479 5470 5462 5453 5444 5436 5428 5420 5411 5404 5398 5393 5387 5382 5378 5375 5371 5368 5366 5365 5363 5362 5360 5359 5361 5361 5360 5360 5361 5362 5363 5364 5365 5365 5366 5368 5369 5372 5378 5382 5383
5729 5725 5721 5716 5712 5707 5702 5696 5691 5686 5681 5676 5671 5667 5662 5657 5652 5647 5642 5637 5631 5623 5616 5610 5604 5597 5596 5594 5584 5576 5570 5564 5558 5552 5547 5542 5536 5530 5524 5517 5510 5502 5494 5486 5477 5468 5459 5450 5440 5431 5424 5416 5407 5398 5391 5384 5379 5374 5369 5366 5364 5362 5359 5357 5356 5355 5354 5354 5353 5354 5354 5353 5355 5355 5355 5355 5356 5356 5356 5356 5358 5359 5359 5363 5367 5370
5726 5722 5718 5713 5708 5703 5698 5692 5686 5680 5676 5671 5666 5663 5659 5654 5649 5643 5637 5631 5627 5620 5610 5604 5600 5593 5587 5585 5579 5571 5565 5558 5551 5545 5540 5535 5528 5521 5514 5506 5498 5490 5482 5473 5465 5456 5448 5439 5430 5421 5413 5406 5397 5389 5381 5375 5369 5363 5359 5356 5355 5354 5352 5350 5349 5349 5349 5349 5348 5348 5348 5348 5349 5349 5349 5349 5349 5349 5349 5349 5349 5349 5350 5351 5355 5358
5724 5719 5714 5709 5704 5699 5694 5688 5682 5676 5671 5667 5661 5655 5652 5649 5645 5640 5634 5628 5623 5617 5608 5599 5595 5590 5582 5576 5571 5566 5560 5553 5546 5539 5533 5527 5519 5512 5504 5495 5486 5476 5467 5458 5450 5442 5435 5427 5420 5411 5403 5395 5386 5379 5373 5368 5361 5356 5352 5349 5347 5347 5345 5344 5344 5344 5344 5344 5343 5343 5343 5343 5343 5343 5343 5343 5343 5343 5342 5343 5342 5342 5342 5343 5345 5348
5723 5717 5711 5706 5700 5695 5690 5684 5679 5674 5668 5663 5656 5649 5642 5637 5633 5629 5624 5620 5616 5612 5606 5597 5589 5585 5579 5571 5565 5560 5552 5546 5539 5532 5525 5517 5509 5501 5493 5484 5474 5464 5455 5447 5440 5432 5425 5416 5406 5397 5388 5381 5375 5370 5365 5360 5354 5350 5346 5343 5341 5341 5340 5340 5340 5339 5339 5338 5338 5337 5337 5337 5337 5337 5337 5337 5337 5337 5336 5336 5336 5336 5336 5336 5338 5339
5721 5715 5709 5703 5697 5691 5685 5679 5673 5668 5662 5655 5648 5640 5632 5624 5617 5612 5608 5605 5602 5601 5598 5592 5584 5579 5574 5568 5561 5554 5545 5536 5529 5522 5514 5506 5498 5490 5483 5474 5465 5456 5448 5440 5432 5424 5413 5402 5391 5381 5374 5369 5365 5362 5358 5353 5349 5345 5342 5339 5337 5337 5336 5335 5335 5334 5333 5333 5332 5332 5332 5332 5332 5332 5331 5331 5331 5330 5330 5330 5330 5330 5330 5330 5331 5332
5716 5709 5703 5697 5691 5685 5679 5672 5666 5659 5654 5648 5641 5633 5627 5620 5612 5605 5599 5594 5589 5586 5586 5583 5578 5571 5565 5560 5553 5546 5538 5529 5521 5514 5507 5499 5491 5483 5475 5466 5456 5447 5438 5429 5420 5410 5399 5388 5378 5370 5365 5361 5357 5355 5352 5348 5344 5341 5338 5336 5335 5334 5333 5332 5331 5330 5329 5328 5327 5327 5327 5326 5326 5326 5325 5325 5324 5324 5324 5324 5324 5323 5323 5324 5325 5325
5714 5707 5699 5692 5686 5680 5674 5668 5661 5655 5649 5643 5638 5631 5624 5619 5612 5605 5598 5590 5581 5576 5575 5574 5572 5568 5561 5555 5547 5538 5532 5523 5514 5507 5501 5493 5484 5475 5466 5454 5443 5434 5424 5414 5406 5397 5387 5378 5369 5363 5358 5355 5351 5349 5346 5343 5340 5337 5335 5333 5332 5331 5330 5328 5327 5325 5324 5323 5322 5322 5321 5320 5320 5319 5319 5319 5318 5317 5317 5317 5317 5317 5317 5317 5318 5318
5713 5707 5699 5692 5685 5678 5671 5665 5658 5651 5646 5639 5633 5628 5621 5614 5608 5600 5595 5589 5580 5572 5568 5564 5561 5559 5556 5551 5543 5533 5524 5516 5508 5500 5493 5484 5474 5464 5453 5441 5430 5420 5411 5403 5395 5386 5378 5370 5363 5358 5354 5350 5346 5344 5342 5339 5336 5334 5331 5330 5328 5327 5326 5324 5323 5321 5319 5318 5317 5316 5315 5315 5314 5313 5312 5312 5311 5311 5311 5311 5311 5311 5310 5310 5311 5312
5709 5705 5699 5691 5683 5676 5669 5662 5655 5648 5642 5635 5628 5622 5616 5610 5603 5595 5587 5582 5574 5566 5563 5558 5551 5545 5542 5538 5533 5524 5516 5507 5499 5490 5482 5473 5462 5450 5439 5429 5419 5410 5401 5393 5386 5379 5371 5364 5359 5354 5350 5346 5342 5339 5337 5334 5332 5330 5327 5326 5324 5322 5321 5319 5318 5316 5315 5313 5312 5311 5310 5309 5308 5307 5306 5305 5305 5304 5304 5304 5304 5304 5304 5304 5304 5305
5704 5700 5695 5687 5679 5673 5666 5658 5651 5645 5639 5633 5625 5618 5610 5603 5597 5590 5582 5575 5566 5556 5552 5552 5546 5538 5530 5525 5519 5512 5503 5493 5485 5478 5470 5460 5449 5438 5427 5419 5410 5401 5393 5386 5379 5372 5366 5359 5354 5349 5346 5342 5339 5336 5333 5330 5328 5325 5323 5321 5319 5317 5315 5314 5312 5311 5309 5308 5307 5305 5304 5303 5302 5301 5301 5299 5298 5298 5298 5298 5298 5298 5298 5298 5298 5299
5700 5695 5690 5683 5675 5669 5663 5655 5648 5641 5635 5630 5623 5615 5608 5600 5592 5585 5579 5571 5561 5551 5543 5539 5537 5531 5522 5515 5509 5502 5492 5482 5474 5467 5459 5450 5440 5428 5417 5409 5401 5392 5384 5378 5371 5366 5361 5355 5350 5345 5341 5338 5335 5332 5329 5326 5323 5321 5318 5316 5314 5312 5311 5309 5307 5305 5304 5303 5302 5300 5298 5297 5296 5295 5294 5293 5293 5292 5292 5293 5292 5292 5292 5292 5292 5293
5698 5691 5686 5682 5675 5667 5659 5651 5642 5635 5629 5623 5616 5609 5601 5595 5589 5583 5578 5571 5559 5547 5538 5530 5526 5526 5520 5510 5502 5494 5485 5476 5468 5459 5452 5443 5432 5421 5411 5401 5393 5385 5378 5371 5365 5360 5356 5351 5346 5341 5337 5334 5330 5327 5324 5321 5318 5316 5313 5311 5309 5307 5305 5304 5302 5300 5298 5297 5296 5295 5293 5291 5291 5290 5289 5288 5287 5287 5287 5287 5286 5286 5286 5287 5287 5288
5697 5690 5683 5677 5671 5664 5657 5648 5638 5630 5623 5617 5610 5603 5596 5589 5584 5576 5571 5569 5559 5546 5535 5524 5517 5516 5514 5503 5494 5486 5479 5472 5463 5453 5445 5436 5425 5414 5405 5396 5387 5379 5372 5364 5359 5355 5351 5347 5342 5338 5333 5329 5326 5323 5319 5316 5313 5310 5308 5306 5304 5302 5300 5298 5296 5294 5293 5292 5290 5289 5288 5286 5285 5284 5283 5283 5282 5282 5281 5281 5281 5281 5281 5282 5282 5283
5695 5689 5683 5676 5668 5660 5653 5645 5637 5629 5623 5616 5608 5601 5592 5584 5577 5569 5560 5557 5555 5546 5535 5524 5514 5509 5504 5496 5487 5480 5473 5466 5456 5446 5437 5428 5418 5408 5398 5390 5382 5374 5367 5359 5353 5349 5346 5342 5338 5333 5329 5325 5321 5318 5314 5311 5308 5304 5302 5300 5298 5296 5294 5292 5290 5288 5286 5285 5284 5283 5282 5281 5280 5279 5278 5277 5277 5277 5276 5276 5275 5275 5276 5277 5277 5278
5690 5685 5680 5675 5672 5667 5660 5652 5644 5635 5624 5615 5606 5597 5588 5579 5573 5567 5558 5549 5545 5541 5532 5519 5511 5508 5502 5493 5484 5474 5467 5460 5450 5439 5429 5420 5412 5402 5392 5383 5375 5368 5361 5354 5348 5344 5341 5337 5334 5329 5325 5321 5317 5313 5309 5306 5303 5299 5296 5293 5291 5289 5288 5286 5284 5282 5280 5279 5278 5278 5277 5276 5274 5273 5272 5272 5272 5272 5271 5271 5270 5270 5271 5272 5273 5273
5686 5678 5671 5665 5660 5658 5654 5648 5641 5632 5621 5610 5600 5592 5585 5577 5570 5564 5557 5547 5538 5534 5528 5515 5505 5503 5500 5490 5479 5468 5459 5453 5444 5433 5422 5412 5403 5395 5386 5377 5369 5361 5354 5348 5343 5339 5335 5332 5329 5325 5321 5316 5312 5308 5304 5301 5298 5294 5290 5287 5284 5281 5280 5279 5277 5276 5275 5273 5272 5272 5271 5270 5269 5267 5266 5266 5266 5267 5266 5266 5266 5266 5266 5267 5268 5269
5682 5674 5667 5658 5648 5639 5633 5626 5619 5614 5610 5605 5598 5591 5583 5575 5567 5561 5554 5545 5534 5527 5524 5514 5499 5494 5493 5483 5472 5463 5453 5445 5436 5426 5414 5404 5395 5387 5380 5371 5363 5355 5348 5341 5336 5332 5328 5325 5322 5319 5315 5311 5307 5303 5299 5296 5292 5288 5285 5281 5277 5274 5272 5270 5269 5268 5268 5267 5266 5265 5265 5264 5263 5262 5260 5260 5260 5261 5261 5261 5261 5261 5261 5262 5263 5264
5680 5673 5665 5657 5647 5637 5629 5622 5615 5609 5605 5601 5596 5589 5581 5573 5565 5558 5551 5543 5532 5521 5517 5512 5496 5483 5480 5472 5461 5453 5443 5434 5426 5415 5403 5393 5386 5380 5373 5364 5356 5349 5342 5335 5330 5326 5322 5319 5315 5312 5309 5305 5302 5298 5294 5290 5286 5282 5278 5274 5271 5267 5264 5262 5261 5260 5260 5259 5259 5258 5258 5257 5257 5256 5255 5254 5255 5255 5255 5256 5256 5256 5256 5256 5257 5258
5679 5672 5665 5658 5649 5640 5632 5626 5619 5612 5604 5597 5591 5584 5578 5570 5562 5553 5546 5539 5531 5517 5508 5506 5496 5481 5471 5462 5451 5441 5432 5423 5416 5405 5393 5384 5376 5370 5364 5357 5349 5342 5336 5331 5325 5320 5317 5314 5310 5306 5302 5298 5295 5292 5289 5284 5280 5275 5270 5266 5264 5260 5257 5255 5253 5252 5252 5252 5251 5251 5250 5250 5250 5250 5249 5249 5249 5249 5249 5250 5250 5251 5251 5251 5252 5253
5678 5669 5663 5658 5651 5643 5636 5630 5622 5614 5606 5597 5589 5581 5573 5565 5556 5547 5538 5532 5526 5516 5504 5497 5490 5478 5466 5455 5445 5436 5425 5415 5407 5398 5388 5377 5369 5363 5357 5351 5343 5335 5328 5323 5319 5314 5311 5308 5305 5301 5297 5293 5289 5286 5283 5279 5274 5269 5264 5259 5255 5253 5250 5247 5246 5245 5244 5243 5243 5244 5244 5243 5244 5244 5243 5243 5243 5243 5243 5244 5245 5246 5246 5246 5247 5247
5676 5668 5660 5655 5650 5643 5636 5629 5620 5611 5604 5597 5589 5580 5569 5559 5551 5544 5536 5526 5519 5512 5501 5489 5481 5473 5463 5451 5441 5432 5421 5410 5402 5394 5383 5372 5362 5356 5350 5344 5338 5330 5322 5316 5311 5307 5304 5301 5298 5295 5291 5287 5283 5280 5276 5272 5267 5262 5257 5252 5248 5245 5242 5239 5237 5236 5235 5234 5234 5236 5237 5237 5237 5237 5237 5238 5238 5238 5238 5238 5240 5241 5241 5242 5242 5242
5673 5666 5658 5653 5649 5643 5634 5627 5618 5608 5600 5592 5585 5577 5567 5558 5551 5545 5537 5525 5511 5501 5492 5483 5473 5467 5458 5446 5434 5423 5413 5403 5395 5386 5376 5366 5356 5348 5341 5336 5330 5324 5317 5311 5304 5300 5297 5294 5291 5287 5284 5280 5277 5273 5269 5265 5260 5255 5250 5245 5241 5237 5234 5231 5228 5227 5226 5226 5226 5227 5229 5231 5232 5232 5232 5232 5233 5233 5232 5233 5234 5235 5236 5236 5237 5237
5671 5665 5658 5650 5644 5637 5628 5620 5613 5606 5598 5590 5581 5573 5565 5555 5544 5535 5526 5516 5502 5489 5480 5474 5464 5455 5446 5435 5425 5415 5406 5397 5389 5378 5367 5358 5349 5340 5331 5325 5320 5315 5309 5304 5299 5293 5289 5287 5284 5280 5277 5273 5270 5267 5263 5258 5253 5248 5243 5239 5234 5230 5226 5222 5219 5218 5217 5216 5217 5219 5222 5224 5226 5226 5226 5227 5227 5228 5228 5228 5228 5229 5230 5231 5232 5233
5667 5660 5652 5643 5637 5631 5623 5613 5605 5597 5589 5582 5572 5562 5555 5547 5536 5523 5513 5506 5498 5485 5473 5465 5457 5447 5437 5427 5417 5408 5399 5390 5381 5370 5358 5347 5339 5331 5323 5316 5310 5305 5301 5296 5292 5287 5283 5281 5278 5274 5270 5267 5264 5261 5257 5252 5247 5242 5237 5232 5228 5223 5218 5214 5211 5209 5208 5208 5210 5212 5214 5216 5219 5221 5221 5222 5222 5223 5223 5223 5224 5225 5226 5227 5228 5228
5663 5654 5646 5636 5627 5621 5614 5607 5600 5590 5578 5569 5563 5554 5545 5535 5526 5516 5508 5501 5495 5487 5476 5465 5455 5444 5433 5422 5411 5400 5391 5382 5374 5364 5352 5342 5333 5324 5317 5310 5303 5298 5294 5290 5285 5281 5278 5275 5272 5269 5266 5262 5258 5255 5250 5245 5241 5236 5232 5227 5222 5217 5211 5207 5203 5201 5201 5201 5203 5205 5207 5210 5213 5215 5216 5217 5218 5218 5219 5219 5220 5221 5222 5223 5223 5223
5660 5651 5643 5633 5622 5614 5607 5597 5588 5580 5571 5563 5556 5547 5536 5526 5518 5512 5510 5503 5491 5480 5470 5458 5447 5436 5425 5415 5406 5396 5385 5378 5372 5362 5349 5339 5330 5320 5311 5305 5298 5292 5287 5283 5279 5275 5272 5270 5267 5264 5261 5258 5254 5249 5245 5240 5235 5231 5227 5222 5217 5212 5206 5201 5197 5195 5195 5196 5198 5200 5202 5205 5208 5210 5212 5213 5214 5214 5215 5216 5216 5217 5218 5218 5219 5219
5655 5646 5638 5629 5619 5610 5603 5592 5581 5574 5569 5561 5550 5539 5528 5519 5510 5501 5498 5494 5481 5467 5455 5445 5436 5428 5418 5409 5400 5390 5379 5372 5369 5361 5348 5336 5327 5317 5308 5300 5293 5287 5281 5276 5273 5269 5266 5264 5261 5259 5256 5253 5249 5245 5240 5235 5231 5227 5223 5218 5213 5208 5202 5198 5194 5192 5192 5193 5194 5197 5199 5201 5204 5206 5208 5209 5210 5211 5212 5212 5213 5214 5215 5215 5216 5216
5651 5642 5633 5625 5615 5603 5594 5589 5582 5572 5562 5550 5539 5529 5520 5513 5505 5493 5483 5478 5470 5459 5449 5439 5429 5421 5411 5400 5391 5382 5372 5364 5360 5355 5345 5334 5325 5315 5305 5297 5289 5283 5277 5272 5268 5264 5261 5259 5256 5254 5251 5248 5245 5241 5236 5232 5228 5224 5220 5215 5210 5205 5200 5196 5193 5191 5190 5191 5192 5195 5197 5200 5202 5203 5205 5206 5207 5208 5209 5210 5211 5211 5211 5212 5213 5213
5647 5637 5627 5618 5610 5599 5588 5579 5570 5560 5550 5542 5533 5526 5518 5511 5504 5494 5482 5474 5466 5456 5445 5434 5422 5411 5401 5390 5381 5372 5362 5353 5347 5342 5334 5326 5318 5309 5301 5293 5285 5278 5273 5268 5263 5260 5257 5255 5252 5249 5246 5244 5241 5237 5232 5229 5225 5222 5217 5213 5209 5205 5200 5196 5193 5191 5190 5191 5193 5195 5197 5199 5200 5201 5202 5203 5205 5206 5206 5207 5208 5209 5209 5210 5210 5211
5644 5635 5625 5615 5606 5597 5586 5575 5564 5554 5546 5539 5531 5525 5519 5509 5499 5489 5481 5474 5464 5450 5437 5426 5416 5404 5393 5383 5373 5364 5352 5340 5333 5329 5323 5315 5309 5301 5293 5287 5280 5274 5269 5264 5260 5256 5253 5251 5248 5246 5243 5239 5237 5233 5229 5226 5223 5220 5216 5212 5208 5204 5201 5198 5195 5193 5192 5193 5194 5195 5197 5198 5199 5200 5201 5202 5203 5204 5205 5206 5206 5207 5208 5208 5208 5209
5641 5632 5623 5614 5605 5596 5587 5577 5567 5556 5545 5536 5528 5521 5514 5506 5495 5482 5470 5459 5450 5441 5431 5421 5410 5400 5388 5378 5368 5359 5348 5334 5324 5319 5314 5307 5301 5295 5287 5280 5274 5269 5264 5260 5256 5253 5250 5248 5245 5243 5240 5236 5233 5230 5227 5224 5221 5218 5214 5211 5207 5204 5202 5199 5198 5196 5195 5195 5196 5196 5197 5197 5198 5199 5200 5201 5202 5203 5204 5205 5205 5206 5207 5207 5207 5207
5640 5630 5620 5611 5603 5594 5585 5575 5565 5556 5545 5535 5526 5517 5507 5499 5490 5476 5460 5447 5439 5434 5427 5417 5406 5396 5385 5374 5364 5354 5346 5336 5325 5316 5309 5301 5293 5288 5281 5275 5269 5264 5259 5255 5252 5249 5247 5245 5243 5240 5237 5233 5230 5227 5224 5222 5220 5217 5214 5211 5208 5205 5203 5201 5200 5198 5197 5197 5197 5197 5197 5198 5199 5199 5200 5201 5202 5202 5203 5204 5205 5206 5206 5207 5207 5207
5636 5626 5616 5606 5598 5589 5580 5571 5561 5552 5543 5534 5525 5516 5503 5489 5478 5469 5460 5452 5441 5430 5422 5414 5405 5393 5382 5371 5361 5351 5342 5334 5323 5313 5304 5296 5287 5280 5274 5268 5263 5259 5255 5252 5249 5247 5245 5243 5240 5236 5233 5230 5227 5225 5222 5221 5219 5216 5213 5210 5208 5206 5205 5203 5202 5200 5199 5199 5198 5198 5199 5199 5199 5200 5200 5201 5202 5202 5203 5204 5205 5206 5207 5207 5208 5208
5633 5625 5614 5603 5593 5584 5575 5564 5552 5544 5538 5529 5518 5508 5497 5485 5475 5468 5462 5456 5445 5432 5421 5412 5403 5390 5378 5366 5357 5348 5337 5327 5317 5307 5299 5291 5282 5274 5268 5262 5257 5254 5251 5248 5246 5244 5242 5240 5237 5233 5230 5227 5225 5223 5221 5219 5218 5215 5213 5211 5209 5208 5206 5205 5203 5202 5201 5200 5200 5200 5200 5200 5200 5201 5201 5202 5202 5203 5204 5205 5206 5207 5207 5208 5208 5208
5632 5623 5612 5601 5590 5579 5569 5562 5555 5546 5537 5527 5515 5505 5498 5490 5481 5471 5461 5453 5445 5434 5420 5408 5398 5388 5375 5362 5352 5342 5331 5320 5310 5301 5291 5283 5276 5269 5263 5257 5253 5251 5248 5246 5244 5243 5241 5238 5234 5231 5227 5225 5223 5221 5220 5218 5217 5215 5213 5211 5210 5208 5207 5206 5204 5204 5203 5202 5202 5202 5201 5201 5201 5202 5202 5203 5204 5205 5206 5207 5207 5208 5208 5208 5208 5208
5630 5622 5614 5605 5595 5584 5574 5568 5562 5552 5540 5531 5522 5513 5505 5496 5486 5475 5463 5452 5443 5432 5417 5403 5392 5382 5371 5358 5346 5336 5325 5314 5304 5295 5286 5278 5270 5264 5258 5254 5250 5248 5246 5245 5243 5242 5239 5236 5232 5229 5226 5224 5222 5220 5219 5218 5217 5215 5213 5212 5210 5209 5208 5207 5206 5205 5205 5204 5204 5203 5203 5203 5203 5203 5204 5205 5206 5207 5208 5208 5208 5208 5209 5209 5209 5209
5631 5624 5616 5607 5601 5596 5588 5578 5569 5559 5548 5540 5531 5520 5510 5500 5488 5476 5463 5451 5438 5427 5414 5401 5388 5376 5365 5353 5340 5330 5320 5309 5299 5290 5282 5274 5267 5261 5256 5252 5249 5247 5246 5244 5243 5240 5237 5234 5230 5228 5225 5223 5221 5219 5218 5217 5216 5215 5214 5212 5211 5210 5209 5208 5208 5207 5206 5205 5205 5205 5205 5205 5205 5206 5207 5207 5208 5209 5209 5210 5210 5210 5210 5209 5209 5209
5631 5623 5616 5608 5599 5592 5585 5577 5569 5560 5548 5537 5529 5521 5513 5503 5490 5474 5460 5446 5433 5421 5410 5398 5385 5372 5361 5349 5336 5325 5315 5305 5294 5286 5279 5271 5264 5258 5254 5251 5249 5247 5246 5244 5242 5239 5236 5233 5230 5228 5226 5223 5221 5219 5218 5218 5217 5215 5214 5213 5212 5211 5210 5210 5209 5208 5207 5207 5206 5206 5207 5207 5208 5209 5209 5210 5210 5211 5211 5211 5211 5211 5210 5210 5209 5209
5626 5617 5610 5604 5597 5589 5582 5576 5570 5563 5552 5539 5527 5516 5505 5495 5485 5472 5458 5445 5432 5421 5409 5396 5382 5367 5356 5345 5333 5321 5311 5301 5291 5281 5274 5267 5261 5256 5253 5251 5249 5248 5246 5244 5241 5238 5235 5233 5230 5228 5226 5224 5222 5220 5219 5218 5217 5216 5215 5214 5213 5213 5212 5211 5210 5209 5208 5208 5208 5208 5209 5210 5210 5211 5211 5212 5212 5212 5212 5212 5212 5212 5212 5211 5210 5210
5628 5618 5609 5602 5595 5588 5579 5569 5560 5554 5548 5538 5524 5511 5499 5488 5477 5467 5455 5443 5431 5418 5406 5394 5381 5366 5352 5341 5330 5318 5308 5298 5288 5279 5271 5265 5260 5256 5253 5251 5250 5249 5247 5244 5241 5238 5235 5233 5231 5229 5226 5224 5222 5221 5220 5219 5218 5217 5216 5215 5215 5214 5213 5212 5211 5210 5209 5210 5210 5210 5211 5212 5212 5213 5213 5213 5213 5213 5213 5213 5213 5213 5212 5212 5212 5211
5630 5620 5608 5597 5586 5576 5567 5557 5547 5538 5531 5523 5514 5505 5495 5484 5474 5463 5453 5440 5426 5412 5398 5387 5377 5367 5354 5340 5327 5315 5305 5295 5286 5277 5270 5264 5260 5257 5255 5254 5253 5250 5248 5245 5242 5238 5236 5234 5232 5229 5227 5225 5223 5222 5221 5221 5220 5218 5217 5217 5216 5216 5215 5213 5212 5211 5211 5212 5212 5213 5213 5214 5214 5214 5214 5214 5214 5214 5215 5214 5214 5214 5213 5212 5212 5212
5625 5614 5603 5592 5582 5573 5565 5557 5548 5537 5528 5520 5512 5504 5495 5486 5475 5464 5451 5437 5423 5408 5394 5381 5370 5361 5351 5339 5324 5311 5302 5293 5285 5277 5271 5266 5262 5260 5258 5257 5255 5252 5249 5246 5243 5240 5237 5235 5233 5231 5228 5226 5225 5224 5223 5222 5221 5220 5219 5219 5218 5217 5216 5214 5214 5213 5214 5214 5214 5215 5215 5215 5216 5216 5216 5216 5216 5216 5215 5215 5215 5214 5214 5213 5213 5212